Location: Newark
(35.8833°N, 14.5000°E)
Time: 00:14:34
(UTC+00:00)

OTV 5 (USA 277) - Pass Details

Date: 28 March 2019
Orbit: 310 x 326 km, 54.5° (Epoch: 20 April)

Event Time Altitude Azimuth Distance (km) Brightness Sun altitude
Rises 04:24:23 0° 191° (S) 2,022 ? -7.0°
Reaches altitude 10° 04:26:46 10° 168° (SSE) 1,197 ? -6.5°
Maximum altitude 04:28:31 16° 126° (SE) 922 ? -6.1°
Drops below altitude 10° 04:30:17 10° 85° (E) 1,199 ? -5.8°
Sets 04:32:40 0° 62° (ENE) 2,029 ? -5.3°
